This demonstration page uses our WeatherBlox Daily Observations layout. Learn more.

Left ArrowRight Arrow

Hourly Observations for February 20, 2020

Temp ( °F °C ) Dew Point ( °F °C ) Humidity (%) Winds ( mph kmh ) Pressure ( in mb ) Visibility ( mi km ) Precip ( " mm )
12:59 am 00:59 Mostly Cloudy 36 2.2 33 0.6 89 89 Calm 30.41 1030 10 16 0.00 0.00
1:59 am 01:59 Mostly Cloudy 37 2.8 34 1.1 89 89 Calm 30.41 1030 10 16 0.00 0.00
2:59 am 02:59 Mostly Cloudy 36 2.2 34 1.1 93 93 Calm 30.41 1030 9 14 0.00 0.00
3:59 am 03:59 Mostly Cloudy 44 6.7 33 0.6 65 65 NNE 10 17 30.41 1030 10 16 0.00 0.00
4:59 am 04:59 Mostly Cloudy 44 6.7 28 -2.2 53 53 NNE 14 22 30.42 1030 10 16 0.00 0.00
5:59 am 05:59 Mostly Cloudy 44 6.7 27 -2.8 51 51 NE 10 17 30.42 1030 10 16 0.00 0.00
6:59 am 06:59 Mostly Cloudy 44 6.7 24 -4.4 45 45 NE 14 22 30.42 1030 10 16 0.00 0.00
7:59 am 07:59 Cloudy 44 6.7 23 -5 43 43 NE 14 22 30.45 1031 10 16 0.00 0.00
8:59 am 08:59 Cloudy 44 6.7 25 -3.9 47 47 NE 14 22 30.47 1032 10 16 0.00 0.00
9:59 am 09:59 Cloudy 44 6.7 25 -3.9 47 47 ENE 14 22 30.46 1032 10 16 0.00 0.00
10:59 am 10:59 Cloudy 45 7.2 28 -2.2 52 52 ENE 14 22 30.45 1031 10 16 0.00 0.00
11:59 am 11:59 Cloudy 45 7.2 28 -2.2 52 52 ENE 9 15 30.42 1030 10 16 0.00 0.00
12:59 pm 12:59 Cloudy 44 6.7 28 -2.2 53 53 NE 12 19 30.41 1030 10 16 0.00 0.00
1:59 pm 13:59 Cloudy with Light Rain/Snow 39 3.9 31 -0.6 73 73 N 8 13 30.41 1030 5 8 0.00 0.00
2:29 pm 14:29 Cloudy 38 3.3 32 0 79 79 NE 8 13 30.39 1029 4 6 0.01 0.25
2:53 pm 14:53 Cloudy with Light Rain/Snow 37 3 32 0 81 81 ENE 8 13 30.40 1029 3 5 0.04 1.02
2:59 pm 14:59 Cloudy with Light Rain/Snow 37 2.8 32 0 82 82 NE 9 15 30.39 1029 2 3 0.05 1.27
3:36 pm 15:36 Cloudy with Light Snow 35 1.7 32 0 89 89 NNE 8 13 30.38 1029 1 2 0.04 1.02
3:59 pm 15:59 Cloudy with Light Snow 35 1.7 33 0.6 93 93 NE 9 15 30.38 1029 2 2 0.07 1.78
4:59 pm 16:59 Cloudy with Light Snow 36 2.2 33 0.6 89 89 NE 13 20 30.36 1028 2 3 0.06 1.52
5:27 pm 17:27 Cloudy with Light Snow 36 2.2 33 0.6 89 89 NNE 13 20 30.37 1028 3 4 0.02 0.51
5:49 pm 17:49 Cloudy with Mist and Fog 36 2.2 33 0.6 89 89 NNE 14 22 30.38 1029 2 3 0.03 0.76
5:59 pm 17:59 Cloudy with Mist and Fog 36 2.2 33 0.6 89 89 NE 13 20 30.37 1029 2 3 0.04 1.02
6:59 pm 18:59 Cloudy with Mist and Fog 35 1.7 33 0.6 93 93 NE 15 24 30.38 1029 2 3 0.06 1.52
7:50 pm 19:50 Cloudy with Mist and Fog 35 1.7 33 0.6 93 93 NNE 16 26 30.37 1028 3 5 0.04 1.02
7:59 pm 19:59 Cloudy with Mist and Fog 35 1.7 33 0.6 93 93 NNE 15 24 30.37 1028 3 4 0.05 1.27
8:59 pm 20:59 Cloudy with Mist and Fog 36 2.2 33 0.6 89 89 NNE 16 26 30.35 1028 3 4 0.04 1.02
9:20 pm 21:20 Cloudy with Light Snow 35 1.7 33 0.6 93 93 NNE 18 30 30.36 1028 2 3 0.01 0.25
9:59 pm 21:59 Cloudy with Light Snow 35 1.7 32 0 89 89 N 18 30 30.36 1028 2 3 0.04 1.02
10:59 pm 22:59 Cloudy with Light Snow 35 1.7 33 0.6 93 93 NNE 18 30 30.35 1028 3 4 0.04 1.02
11:13 pm 23:13 Cloudy with Light Snow 36 2.2 33 0.6 89 89 NNE 18 30 30.35 1028 3 5 0.01 0.25
11:59 pm 23:59 Cloudy with Light Snow 36 2.2 31 -0.6 82 82 NE 15 24 30.36 1028 7 11 0.01 0.25

Powered by AerisWeather